| time (UTC) | temp F | wind direction | speed knots | gust knots | rain 1hr in | rain 24hr in | rain mn in | humidity % | barometer mb |
| 20260505200004 | 65 | 273 | 7.8 | 14.8 | 0.00 | 0.02 | 0.02 | 68 | 1006.5 |
| 20260505194500 | 66 | 227 | 7.0 | 18.2 | 0.00 | 0.02 | 0.02 | 67 | 1006.7 |
| 20260505193000 | 66 | 169 | 7.8 | 16.5 | 0.00 | 0.02 | 0.02 | 66 | 1006.6 |
| 20260505191500 | 68 | 186 | 7.8 | 16.5 | 0.00 | 0.02 | 0.02 | 65 | 1006.2 |
| 20260505183000 | 67 | 226 | 8.7 | 22.6 | 0.00 | 0.02 | 0.02 | 65 | 1006.4 |
| 20260505181500 | 67 | 273 | 8.7 | 20.9 | 0.00 | 0.02 | 0.02 | 66 | 1006.0 |
| 20260505180005 | 67 | 225 | 7.8 | 17.4 | 0.00 | 0.02 | 0.02 | 65 | 1005.9 |
| 20260505173000 | 67 | 236 | 7.8 | 23.5 | 0.00 | 0.02 | 0.02 | 65 | 1005.9 |
| 20260505171500 | 68 | 229 | 7.0 | 19.1 | 0.00 | 0.02 | 0.02 | 66 | 1005.6 |
| 20260505170006 | 67 | 270 | 7.8 | 16.5 | 0.00 | 0.02 | 0.02 | 66 | 1005.5 |
| 20260505164500 | 65 | 218 | 6.1 | 13.9 | 0.00 | 0.02 | 0.02 | 69 | 1005.5 |
| 20260505163000 | 64 | 205 | 5.2 | 11.3 | 0.00 | 0.02 | 0.02 | 69 | 1005.8 |
| 20260505161500 | 65 | 223 | 6.1 | 13.0 | 0.00 | 0.02 | 0.02 | 69 | 1005.8 |
| 20260505151459 | 66 | 265 | 4.3 | 11.3 | 0.00 | 0.02 | 0.02 | 67 | 1004.3 |
| 20260505124501 | 67 | 171 | 5.2 | 12.2 | 0.00 | 0.02 | 0.02 | 67 | 1003.6 |
| 20260505122959 | 65 | 163 | 4.3 | 9.6 | 0.00 | 0.02 | 0.02 | 72 | 1003.6 |
| 20260505121500 | 65 | 190 | 4.3 | 10.4 | 0.00 | 0.02 | 0.02 | 72 | 1003.4 |
| 20260505114500 | 64 | 167 | 4.3 | 10.4 | 0.00 | 0.02 | 0.02 | 73 | 1003.3 |
| 20260505112959 | 63 | 164 | 4.3 | 10.4 | 0.00 | 0.02 | 0.02 | 74 | 1003.3 |
| 20260505111459 | 63 | 182 | 5.2 | 8.7 | 0.00 | 0.02 | 0.02 | 74 | 1003.0 |
| 20260505101459 | 61 | 197 | 3.5 | 7.0 | 0.00 | 0.02 | 0.02 | 78 | 1002.5 |
| 20260505091459 | 58 | 113 | 0.9 | 3.5 | 0.00 | 0.02 | 0.02 | 85 | 1002.4 |
| 20260505090002 | 57 | 171 | 1.7 | 4.3 | 0.00 | 0.02 | 0.02 | 86 | 1002.6 |
| 20260505082958 | 57 | 174 | 0.9 | 1.7 | 0.01 | 0.02 | 0.02 | 89 | 1002.9 |
| 20260505081458 | 57 | 157 | 0.0 | 1.7 | 0.01 | 0.02 | 0.02 | 88 | 1003.0 |
| 20260505080002 | 58 | 189 | 0.9 | 2.6 | 0.01 | 0.02 | 0.02 | 87 | 1003.1 |
| 20260505074459 | 58 | 189 | 0.9 | 3.5 | 0.01 | 0.01 | 0.01 | 86 | 1003.3 |
| 20260505072959 | 59 | 250 | 1.7 | 4.3 | 0.01 | 0.01 | 0.01 | 86 | 1003.6 |
| 20260505071458 | 59 | 208 | 1.7 | 5.2 | 0.01 | 0.01 | 0.01 | 86 | 1004.0 |
| 20260505070001 | 60 | 173 | 3.5 | 7.8 | 0.01 | 0.01 | 0.01 | 84 | 1003.6 |
| 20260505064458 | 61 | 213 | 7.0 | 15.6 | 0.00 | 0.00 | 0.00 | 80 | 1003.7 |
| 20260505062958 | 61 | 184 | 2.6 | 11.3 | 0.00 | 0.00 | 0.00 | 76 | 1003.8 |
| 20260505060001 | 61 | 157 | 1.7 | 5.2 | 0.00 | 0.00 | 0.00 | 74 | 1003.7 |
| 20260505054458 | 62 | 187 | 2.6 | 6.1 | 0.00 | 0.00 | 0.00 | 73 | 1003.7 |
| 20260505051459 | 63 | 150 | 3.5 | 7.8 | 0.00 | 0.00 | 0.00 | 70 | 1003.9 |
| 20260505041458 | 63 | 200 | 2.6 | 7.0 | 0.00 | 0.00 | 0.00 | 66 | 1003.9 |
| 20260505040006 | 63 | 190 | 3.5 | 7.0 | 0.00 | 0.00 | 0.00 | 66 | 1004.1 |
| 20260505034501 | 63 | 219 | 3.5 | 8.7 | 0.00 | 0.00 | 0.00 | 65 | 1004.1 |
| 20260505033001 | 62 | 192 | 2.6 | 7.8 | 0.00 | 0.00 | 0.00 | 64 | 1004.2 |
| 20260505030005 | 58 | 202 | 0.9 | 13.0 | 0.00 | 0.00 | 0.00 | 65 | 1004.7 |
| 20260505024502 | 57 | 210 | 0.0 | 0.0 | 0.00 | 0.00 | 0.00 | 71 | 1004.0 |
| 20260505023001 | 57 | 210 | 0.0 | 0.0 | 0.00 | 0.00 | 0.00 | 72 | 1003.9 |
| 20260505021501 | 58 | 210 | 0.0 | 0.0 | 0.00 | 0.00 | 0.00 | 70 | 1003.8 |
| 20260505020008 | 58 | 210 | 0.0 | 0.9 | 0.00 | 0.00 | 0.00 | 68 | 1004.0 |
| 20260505014501 | 59 | 210 | 0.0 | 0.9 | 0.00 | 0.00 | 0.00 | 64 | 1004.1 |
| 20260505011501 | 60 | 210 | 0.0 | 0.0 | 0.00 | 0.00 | 0.00 | 59 | 1004.0 |
| 20260505010007 | 61 | 210 | 0.0 | 0.9 | 0.00 | 0.00 | 0.00 | 58 | 1003.9 |
| 20260505003001 | 65 | 210 | 0.0 | 0.9 | 0.00 | 0.00 | 0.00 | 51 | 1004.0 |
| 20260505001501 | 67 | 210 | 0.0 | 1.7 | 0.00 | 0.00 | 0.00 | 47 | 1004.0 |
| 20260504234501 | 69 | 205 | 1.7 | 3.5 | 0.00 | 0.00 | 0.00 | 44 | 1004.0 |
| 20260504233002 | 70 | 271 | 0.9 | 3.5 | 0.00 | 0.00 | 0.00 | 44 | 1004.0 |
| 20260504230005 | 72 | 267 | 2.6 | 6.1 | 0.00 | 0.00 | 0.00 | 40 | 1003.9 |
| 20260504224502 | 72 | 325 | 5.2 | 8.7 | 0.00 | 0.00 | 0.00 | 39 | 1003.9 |
| 20260504223001 | 73 | 261 | 4.3 | 9.6 | 0.00 | 0.00 | 0.00 | 37 | 1003.7 |
| 20260504221502 | 74 | 308 | 3.5 | 7.8 | 0.00 | 0.00 | 0.00 | 39 | 1003.6 |
| 20260504220007 | 74 | 289 | 3.5 | 6.1 | 0.00 | 0.00 | 0.00 | 38 | 1003.6 |
| 20260504214500 | 74 | 266 | 3.5 | 10.4 | 0.00 | 0.00 | 0.00 | 38 | 1003.7 |
| 20260504213000 | 74 | 183 | 4.3 | 9.6 | 0.00 | 0.00 | 0.00 | 39 | 1004.0 |
| 20260504210004 | 74 | 251 | 5.2 | 13.9 | 0.00 | 0.00 | 0.00 | 38 | 1003.8 |
| 20260504204500 | 74 | 215 | 5.2 | 8.7 | 0.00 | 0.00 | 0.00 | 41 | 1003.9 |
| 20260504203000 | 73 | 225 | 6.1 | 12.2 | 0.00 | 0.00 | 0.00 | 41 | 1004.1 |
| 20260504201500 | 74 | 277 | 5.2 | 9.6 | 0.00 | 0.00 | 0.00 | 41 | 1004.2 |